• Join FlightAware (Why Join?)
  • Login
  • US Flag GB Flag 
11:45 EDT


 

Airport Tracker/Info


-or-


 

Live Flight TrackerFlight Track Log ✈ SWA3497 ✈ 23-Apr-2013 ✈ KMDW - KSDF

Flight Track Log - Related Links

Times and Time Zones

All times are in EDT time to prevent confusion due to time zone crossing. See the SWA3497 flight status page for this flight to view local times or setup timezone preferences in your user account.

Time Position Orientation Groundspeed Altitude Reporting Facility
EDT Latitude Longitude Course Direction KTS MPH feet Rate Location/Type
12:26 41.7500 -87.7833 175° South 176 203 3,000  Level Chicago TRACON
12:28 41.5994 -87.7669 175° South 252 290 11,300 2,520 Climbing Chicago Center
12:29 41.5242 -87.7511 171° South 270 311 12,000 780 Climbing Chicago Center
12:30 41.4289 -87.7272 169° South 292 336 13,000 1,980 Climbing Chicago Center
12:31 41.3414 -87.7247 179° South 312 359 16,100 3,420 Climbing Chicago Center
12:33 41.2517 -87.7261 181° South 320 368 20,100 2,340 Climbing Chicago Center
12:34 41.1600 -87.7206 177° South 328 377 21,000 420 Climbing Chicago Center
12:35 41.0661 -87.7078 174° South 337 388 21,000  Level Chicago Center
12:36 40.9739 -87.6819 168° South 342 394 21,000  Level Chicago Center
12:37 40.8817 -87.6544 167° South 341 392 21,000  Level Chicago Center
12:38 40.7717 -87.6217 167° South 339 390 21,000  Level Chicago Center
12:39 40.6803 -87.5947 167° South 337 388 21,000  Level Chicago Center
12:40 40.5872 -87.5675 167° South 343 395 21,000  Level Chicago Center
12:41 40.4947 -87.5397 167° South 342 394 21,000  Level Chicago Center
12:42 40.4017 -87.5125 167° South 345 397 21,000  Level Chicago Center
12:43 40.2883 -87.4792 167° South 348 400 21,000  Level Chicago Center
12:44 40.1950 -87.4519 167° South 344 396 21,000  Level Chicago Center
12:45 40.1147 -87.4292 168° South 348 400 21,000  Level Indianapolis Center
12:46 40.0003 -87.3958 167° South 350 403 21,000  Level Indianapolis Center
12:47 39.9033 -87.3672 167° South 352 405 21,000  Level Indianapolis Center
12:48 39.8083 -87.3394 167° South 351 404 21,000  Level Indianapolis Center
12:49 39.7128 -87.3083 166° South 351 404 21,000  Level Indianapolis Center
12:50 39.6303 -87.2283 143° Southeast 362 417 21,000  Level Indianapolis Center
12:51 39.5411 -87.1367 142° Southeast 387 445 21,000  Level Indianapolis Center
12:52 39.4494 -87.0419 141° Southeast 409 471 21,000  Level Indianapolis Center
12:53 39.3567 -86.9475 142° Southeast 418 481 21,000  Level Indianapolis Center
12:54 39.2642 -86.8525 141° Southeast 422 486 21,000  Level Indianapolis Center
12:55 39.1703 -86.7589 142° Southeast 422 486 21,000  Level Indianapolis Center
12:56 39.0581 -86.6467 142° Southeast 423 487 21,000 -1,020 Level Indianapolis Center
12:57 38.9650 -86.5533 142° Southeast 421 484 19,000 -2,400 Descending Indianapolis Center
12:58 38.8758 -86.4631 142° Southeast 410 472 16,200 -2,700 Descending Indianapolis Center
13:00 38.7519 -86.3383 142° Southeast 350 403 12,000 -2,700 Descending FAA TRACON SMA TRACON (SMA)
13:00 38.7222 -86.3094 143° Southeast 349 402 11,100 -1,680 Descending FAA TRACON SMA TRACON (SMA)
13:00 38.7008 -86.2844 138° Southeast 343 395 10,900 -600 Descending FAA TRACON SMA TRACON (SMA)
13:01 38.6797 -86.2600 138° Southeast 335 386 10,700 -480 Descending FAA TRACON SMA TRACON (SMA)
13:01 38.6558 -86.2325 138° Southeast 307 353 10,600 -780 Descending FAA TRACON SMA TRACON (SMA)
13:01 38.6333 -86.2217 159° South 285 328 10,200 -1,320 Descending FAA TRACON SMA TRACON (SMA)
13:02 38.6117 -86.2111 159° South 274 315 9,700 -1,680 Descending FAA TRACON SMA TRACON (SMA)
13:02 38.5847 -86.1989 160° South 268 308 9,100 -1,560 Descending FAA TRACON SMA TRACON (SMA)
13:02 38.5631 -86.1897 162° South 265 305 8,700 -1,500 Descending FAA TRACON SMA TRACON (SMA)
13:03 38.5419 -86.1806 161° South 262 302 8,100 -1,800 Descending FAA TRACON SMA TRACON (SMA)
13:03 38.5147 -86.1692 162° South 266 306 7,500 -1,740 Descending FAA TRACON SMA TRACON (SMA)
13:03 38.4942 -86.1600 161° South 260 299 7,000 -900 Descending FAA TRACON SMA TRACON (SMA)
13:04 38.4733 -86.1511 162° South 257 296 6,900 -180 Descending FAA TRACON SMA TRACON (SMA)
13:04 38.4469 -86.1417 164° South 255 293 6,900  Level FAA TRACON SMA TRACON (SMA)
13:04 38.4264 -86.1342 164° South 252 290 6,900 -180 Level FAA TRACON SMA TRACON (SMA)
13:05 38.4053 -86.1261 163° South 254 292 6,800 -780 Descending FAA TRACON SMA TRACON (SMA)
13:05 38.3786 -86.1164 164° South 258 297 6,400 -1,080 Descending FAA TRACON SMA TRACON (SMA)
13:05 38.3578 -86.1086 164° South 256 295 6,100 -780 Descending FAA TRACON SMA TRACON (SMA)
13:06 38.3367 -86.1006 163° South 255 293 5,900 -480 Descending FAA TRACON SMA TRACON (SMA)
13:06 38.3111 -86.0906 163° South 251 289 5,800 -1,080 Descending FAA TRACON SMA TRACON (SMA)
13:06 38.2906 -86.0828 163° South 250 288 5,200 -1,740 Descending FAA TRACON SMA TRACON (SMA)
13:07 38.2714 -86.0692 151° Southeast 256 295 4,700 -1,500 Descending FAA TRACON SMA TRACON (SMA)
13:07 38.2611 -86.0358 111° Southeast 274 315 4,200 -1,200 Descending FAA TRACON SMA TRACON (SMA)
13:07 38.2672 -86.0061 75° East 285 328 3,900 -480 Descending FAA TRACON SMA TRACON (SMA)
13:08 38.2833 -85.9833 48° Northeast 291 335 3,900  Level FAA TRACON SMA TRACON (SMA)
13:08 38.3103 -85.9656 27° Northeast 287 330 3,900  Level FAA TRACON SMA TRACON (SMA)
13:08 38.3294 -85.9525 28° Northeast 268 308 3,900  Level FAA TRACON SMA TRACON (SMA)
13:09 38.3453 -85.9344 42° Northeast 259 298 3,900  Level FAA TRACON SMA TRACON (SMA)
13:09 38.3525 -85.9100 69° East 248 285 3,900  Level FAA TRACON SMA TRACON (SMA)
13:09 38.3556 -85.8794 83° East 233 268 3,900  Level FAA TRACON SMA TRACON (SMA)
13:10 38.3572 -85.8567 85° East 215 247 3,900 -180 Level FAA TRACON SMA TRACON (SMA)
13:10 38.3592 -85.8361 83° East 196 226 3,800 -780 Descending FAA TRACON SMA TRACON (SMA)
13:10 38.3569 -85.8125 97° East 188 216 3,400 -1,080 Descending FAA TRACON SMA TRACON (SMA)
13:11 38.3456 -85.8028 146° Southeast 174 200 3,100 -780 Descending FAA TRACON SMA TRACON (SMA)
13:11 38.3328 -85.7969 160° South 160 184 2,900 -300 Descending FAA TRACON SMA TRACON (SMA)
13:11 38.3178 -85.7919 165° South 145 167 2,900  Level FAA TRACON SMA TRACON (SMA)
13:12 38.3064 -85.7883 166° South 140 161 2,900 -300 Level FAA TRACON SMA TRACON (SMA)
13:12 38.2942 -85.7839 164° South 144 166 2,700 -780 Descending FAA TRACON SMA TRACON (SMA)
13:12 38.2792 -85.7794 167° South 146 168 2,400 -960 Descending FAA TRACON SMA TRACON (SMA)
13:13 38.2669 -85.7756 166° South 146 168 2,100 -780 Descending FAA TRACON SMA TRACON (SMA)
13:13 38.2550 -85.7714 165° South 146 168 1,900 -780 Descending FAA TRACON SMA TRACON (SMA)
13:13 38.2411 -85.7667 165° South 137 158 1,600 -780 Descending FAA TRACON SMA TRACON (SMA)
13:14 38.2303 -85.7631 165° South 129 148 1,400 -600 Descending FAA TRACON SMA TRACON (SMA)
13:14 38.2203 -85.7597 165° South 120 138 1,200 -780 Descending FAA TRACON SMA TRACON (SMA)
13:14 38.2072 -85.7553 165° South 124 143 900 -780 Descending FAA TRACON SMA TRACON (SMA)
13:15 38.1972 -85.7519 165° South 123 142 700 -480 Descending FAA TRACON SMA TRACON (SMA)
13:15 38.1903 -85.7494 164° South 117 135 600 -360 Descending FAA TRACON SMA TRACON (SMA)